CAPE
0 0 0 0 0 0 0 0 0 0 0 0 0 0 0 0 0 0 0 0 0 0 0 0 0 0 0 189 1140 1590 1688 1697 1497 1735 1994 1823 1774 1537 1573 1899 1946 2031 2133 2342 2177 1930 1840 1958 1781 1554 1602 1672 1782 1875 1883 1964 2234 1974 1898 1866 1682 1710 1706 1890 1858 1817 1865 1666 1385 1358 1259 1293 1399 1162 1364 1192 975 781 775 739 600 802 648 912 1048 1114
0 0 0 0 0 0 0 0 0 0 0 0 0 0 0 0 0 0 0 0 0 0 0 0 0 0 3 580 1374 1539 1514 1466 1618 1648 1896 1881 1842 1680 1710 1880 1966 2128 2062 2160 2042 1617 1780 1756 1809 1746 1702 1677 1754 1840 2020 2260 1599 2216 2168 1803 1886 1445 1576 2252 2115 2063 1636 1426 1378 1424 1314 1201 1120 1059 952 906 884 773 654 807 776 672 622 829 857 789
0 0 0 0 0 0 0 0 0 0 0 0 0 0 0 0 0 0 0 0 0 0 0 0 0 0 166 812 1231 1426 1544 1520 1589 1748 1805 1840 1753 1791 1828 1864 1786 2033 2084 2117 2071 1919 1928 1689 1694 1602 1647 1757 1727 1797 1832 2413 2316 1794 1652 1641 1633 1666 2049 2310 2120 2054 1604 1577 1572 1372 1485 1232 1026 1060 925 784 638 454 273 564 597 653 593 348 507 652
0 0 0 0 0 0 0 0 0 0 0 0 0 0 0 0 0 0 0 0 0 0 34 0 0 4 304 1459 1477 1789 1744 1565 1672 1576 1710 1717 1737 1796 2015 1980 1960 1840 2214 2275 2123 2069 1981 2014 1705 1439 1460 1726 1837 1784 1856 2276 1666 1400 1048 1121 1372 1686 2267 2178 2191 1710 1783 1921 1559 1531 1555 1449 1051 1086 1026 809 647 332 137 104 220 236 422 427 231 178
0 0 0 0 0 0 0 0 0 0 0 0 0 0 0 0 0 0 0 0 0 0 0 0 0 5 108 268 1090 1584 1610 1745 1706 1716 1759 1800 1818 1950 2060 2069 2138 2087 2151 2176 2163 2160 2087 1837 1465 1417 1633 1720 2065 1721 1826 1651 1160 1226 1258 627 1015 1667 1966 2297 2086 1857 1783 1976 1966 1932 1838 1575 1277 892 685 604 436 206 40 20 136 176 355 374 268 230
0 0 0 0 0 0 0 0 0 0 0 0 0 0 0 0 0 0 0 0 13 0 0 0 0 0 6 149 251 1406 1481 1488 1574 1706 1781 1856 1884 1927 2060 2172 2164 2208 2130 2151 2223 2270 2163 1851 1020 1071 1271 1722 1718 1701 1802 1596 1448 1482 1526 1070 1016 1521 1864 2078 1889 1727 1610 1560 1369 1226 1053 973 898 842 618 498 359 90 61 37 121 145 310 229 304 144
0 6 0 0 0 0 0 0 0 0 0 0 0 0 0 0 0 0 0 0 0 6 0 0 24 0 0 59 553 1324 1302 1362 1675 1784 1786 1974 1974 1919 1878 1871 2086 2142 2201 2109 2055 2158 1936 1594 1331 1284 1157 1268 1527 1515 1866 1807 1820 1826 1765 1489 2058 1324 1683 1754 1691 1715 1798 1705 1535 1293 1025 850 715 670 837 734 446 206 42 104 278 170 362 251 253 117
0 0 0 0 0 0 0 0 0 0 0 0 16 0 0 0 0 0 0 0 0 10 1 0 1 6 0 107 457 911 1070 1266 1590 1714 1901 1849 2040 1978 2157 2303 2207 2048 1967 2146 2039 1685 1142 667 739 823 1144 1195 1339 1421 1713 1682 1820 1935 2149 2176 1529 1492 1646 1820 1954 1940 2028 1802 1772 1446 1045 813 719 673 807 613 469 228 100 112 89 96 101 79 40 14
0 0 0 0 0 0 0 0 0 0 0 24 0 0 0 0 0 0 0 0 0 0 0 0 0 0 0 95 95 291 844 1404 1521 1527 1556 1752 1854 2165 2384 2467 2490 2396 2150 1766 1698 1453 1172 924 733 819 858 876 1115 1308 1398 1746 1781 2184 2673 2148 1713 1803 2092 2300 2417 2179 2159 1834 1870 1612 1205 860 667 632 620 376 187 168 146 136 51 10 2 29 57 15
0 0 0 0 0 0 0 0 0 0 0 6 0 0 0 0 0 0 0 0 0 0 0 0 14 0 0 66 104 225 432 789 995 1154 1340 1535 1557 1808 2202 2470 2471 2326 2009 1665 1337 1308 1494 1460 1247 878 838 1017 1317 1511 1364 1559 1807 1463 1642 2142 1718 1980 2214 2365 2468 2262 2266 2320 2005 1624 1280 1144 832 585 471 289 222 188 161 135 106 25 2 0 0 5
0 0 0 0 0 0 0 0 0 0 0 1 0 0 0 0 0 0 0 0 0 0 0 62 125 6 6 94 24 88 424 564 467 408 416 416 465 632 1115 1927 2298 2098 1892 1351 1338 1489 1561 1520 1428 1165 1232 1276 1387 1514 1733 1586 1324 471 710 1451 1714 1923 1993 2107 2254 2250 2210 2209 1860 1590 1531 1033 959 783 545 371 271 116 136 75 63 21 0 0 0 0
0 0 0 0 0 0 0 0 0 0 0 0 0 0 0 0 0 0 0 0 0 0 164 34 148 85 0 65 91 365 342 572 626 874 855 856 677 614 409 590 1305 1862 1639 1254 1476 1543 1491 1553 1541 1302 1205 1093 972 920 1104 1045 1005 728 777 923 1490 1685 1814 2034 1925 1938 1815 1663 1833 1739 1459 1188 1069 930 660 416 326 236 170 108 56 0 0 0 0 0
0 0 0 0 0 0 0 0 0 0 0 0 0 0 0 0 0 0 0 0 0 5 114 67 10 6 0 735 327 375 581 850 1008 1065 1062 970 924 864 405 404 1341 1774 1556 1277 1421 1434 1320 1374 1359 1344 886 775 665 688 917 1069 781 593 675 851 1286 1446 1248 1452 1412 1353 1200 1370 1679 1606 1349 1219 1138 943 639 478 344 304 158 75 11 0 0 0 0 0
0 0 0 0 0 0 0 0 0 0 0 0 0 0 0 0 0 0 0 0 0 42 29 52 58 6 0 216 400 608 820 926 1150 1172 1146 1018 1157 1197 966 1185 1304 1472 1371 1241 1349 1158 1164 1270 1154 1260 942 806 780 839 937 1071 1193 1266 991 843 935 1049 1019 985 1071 1155 952 1161 1489 1526 1297 1245 1036 978 758 476 398 284 99 35 6 0 0 0 0 0
0 0 0 0 0 0 0 0 0 0 0 0 0 0 0 0 0 0 0 0 0 0 70 28 0 0 14 19 193 696 1073 1230 1106 1165 1288 1291 1258 1169 1049 1143 1187 1182 1501 1153 1039 1098 1220 1460 1206 1110 986 719 835 867 895 930 992 843 696 662 910 1082 854 834 932 1162 914 833 1244 1381 1429 1482 1002 1225 934 452 396 330 100 33 6 0 0 0 0 2
0 0 0 0 0 0 0 0 0 0 0 0 0 0 0 0 0 2 6 165 0 5 4 33 0 9 180 126 295 793 1208 1326 1294 1464 1487 1469 1344 1356 1299 1248 1194 1181 1283 1204 1266 1246 1237 1233 1093 752 433 418 834 994 1073 916 908 964 942 885 1087 1504 1170 772 713 584 555 627 908 1171 1290 1412 1299 1033 1084 892 854 802 389 216 17 4 5 5 8 4
0 1 0 0 0 0 0 0 0 0 42 0 0 0 0 24 0 0 0 179 0 0 0 2 0 0 35 146 374 958 1207 1337 1452 1432 1475 1428 1448 1432 1258 1091 866 1062 1124 1136 1212 1244 1103 1023 893 666 636 316 183 791 928 962 786 871 1081 1284 1416 1428 1153 547 327 673 610 718 837 1050 1140 1160 1178 1186 1024 749 868 876 675 463 232 42 16 25 11 11
1 1 0 0 0 0 0 0 0 0 0 0 0 0 0 0 6 0 0 0 0 0 7 16 0 1 0 1 346 657 1260 1387 1341 1418 1435 1488 1447 1327 1089 1086 1134 1077 1114 1002 1001 968 1110 1085 857 451 658 822 980 1135 1226 1001 851 720 1002 1142 1412 1403 1339 863 598 742 806 697 822 990 1101 1165 1182 1107 1158 912 704 507 361 203 172 325 54 26 18 39
0 0 0 0 0 0 0 0 0 0 0 0 0 0 0 0 0 0 0 0 0 0 0 0 2 7 27 276 239 485 814 1426 1305 1449 1360 1304 1304 1134 1176 1093 998 982 722 727 948 1018 1168 1254 996 867 396 631 772 970 1282 885 682 647 750 1103 1397 1460 1437 1409 1303 1081 872 719 883 985 1069 1134 1102 1006 1111 982 809 549 364 196 55 80 137 86 40 29
0 6 31 0 0 0 0 0 0 0 0 0 0 0 0 0 0 0 0 0 0 0 0 0 0 0 0 42 108 500 929 1256 1361 1370 1132 1176 1110 1018 1066 992 896 964 469 285 546 766 884 906 1147 1090 714 118 783 1047 1087 817 610 705 653 695 901 876 1082 1018 1112 908 858 859 984 1087 1080 1108 1027 1081 1220 1201 956 468 308 219 202 101 286 239 59 64
4 51 0 0 0 0 0 0 9 0 0 0 0 0 0 0 5 22 76 0 0 0 3 0 0 0 178 233 427 328 945 1288 1276 1225 1215 1136 1083 1038 1115 1024 750 749 763 724 901 824 680 555 767 905 1046 894 1019 1214 1244 814 462 526 538 609 734 827 770 898 1044 1072 1071 1060 1184 1302 1358 1327 1164 1163 1046 928 814 618 450 339 304 361 280 232 336 302
0 0 0 0 0 0 0 0 0 0 0 0 0 0 0 0 0 0 0 0 0 0 0 0 0 88 89 222 302 596 798 875 1220 1119 1137 1131 1151 1178 1128 1079 952 877 726 754 804 780 690 412 561 709 448 361 443 662 748 790 883 650 475 403 510 602 799 765 908 841 1162 1253 1382 1489 1560 1542 1403 1233 1103 1018 926 767 673 639 452 548 357 247 312 318
59 0 2 2 3 34 0 0 0 0 0 0 0 13 2 0 0 0 0 1 0 0 6 5 1 190 116 193 358 334 373 946 1179 1004 1082 1126 1213 1136 1108 1072 1104 902 745 911 898 931 795 777 694 484 424 364 386 619 923 824 801 951 864 759 794 820 798 930 967 958 1118 1204 1368 1474 1517 1596 1459 1287 1262 1194 988 996 756 621 720 643 492 409 312 303
660 10 1 9 0 0 0 0 0 0 0 0 0 0 0 49 23 5 1 14 7 1 0 0 4 233 278 429 659 630 658 1226 1290 1207 1074 1112 1044 1088 1300 1231 1312 1039 1012 1039 1157 1223 1140 991 913 738 644 621 570 833 918 1166 1145 1199 1194 1222 1172 1104 1021 1147 1190 1048 1028 1207 1360 1363 1406 1518 1380 1356 1414 1418 1133 1073 929 866 924 689 616 423 476 516
0 0 3 54 11 2 0 0 0 0 0 0 0 2 0 0 1 116 5 54 0 10 0 0 8 418 286 560 804 935 862 1029 1193 1126 1014 1036 1078 1119 1071 1137 1180 1207 1114 1125 1208 1228 1140 1138 1233 1141 1152 1081 1048 1061 1198 1163 1249 1329 1455 1492 1425 1314 1332 1329 1328 1318 1276 1118 1321 1397 1370 1290 1335 1302 1348 1403 1247 1273 1154 1160 889 692 702 745 629 553
3 0 0 16 61 2 6 7 1 0 0 0 0 0 0 0 8 0 0 0 0 5 5 1 17 284 287 510 715 996 996 996 944 867 989 1005 1058 1002 1105 1213 1183 1213 1038 962 1009 980 938 819 803 1080 1030 1120 1212 1213 1026 968 983 984 1062 1131 1215 1285 1268 1274 1315 1313 1298 1193 1228 1389 1231 1449 1357 1283 1244 1148 1261 1566 1327 1131 1024 1001 944 966 723 986
0 0 0 0 0 9 40 0 0 0 2 0 0 0 0 0 0 64 59 0 0 132 42 6 235 172 284 459 526 667 785 768 757 930 895 947 942 980 967 868 952 943 855 801 801 792 722 708 835 792 843 954 1083 1014 1021 814 787 753 862 947 966 902 950 1053 1164 1216 1291 1296 1309 1224 1147 1244 1218 1271 1396 1106 1003 1328 1294 1284 1250 1206 1062 858 927 987
0 0 0 0 0 0 0 0 0 0 0 0 0 0 0 0 1 161 2 103 58 65 25 431 463 535 246 186 293 306 444 602 796 923 960 977 985 902 898 765 664 575 526 470 510 573 588 540 514 554 571 675 683 717 808 826 750 702 870 842 855 778 870 865 1014 1001 1071 1183 1304 1311 1194 1148 1152 822 720 758 977 1045 1204 1233 1203 1101 1018 1041 1086 1091
5 0 0 0 0 0 0 0 0 0 2 0 0 0 0 0 50 65 0 0 255 20 8 245 700 324 53 13 82 125 112 182 208 430 454 672 751 806 724 690 556 454 369 85 308 245 352 489 611 623 668 656 626 604 499 579 655 643 854 903 770 760 825 803 828 966 1010 1028 1242 1208 1175 1054 865 680 778 951 1065 775 1028 1219 1272 1101 1115 1088 1141 1148
52 3 0 0 0 0 0 0 0 0 2 0 0 0 0 0 0 2 1 1 42 127 370 533 257 0 0 0 121 302 377 454 563 555 507 635 654 616 537 525 469 155 64 85 127 68 47 352 432 479 454 281 237 342 392 489 553 573 816 836 843 787 888 1007 1033 1021 950 991 1201 1162 911 929 932 739 853 787 716 725 1049 1125 1299 1319 1165 917 969 828
126 3 0 0 0 0 0 0 0 0 0 0 0 0 0 0 0 1 2 1 58 75 92 107 10 0 0 0 0 258 461 532 577 537 479 434 370 349 186 249 442 295 140 91 46 6 0 0 0 0 121 460 466 506 522 520 600 706 767 819 840 707 761 987 1028 1130 1142 1014 869 906 838 829 816 928 747 812 552 960 1111 1101 1171 820 650 712 804 664
108 3 0 0 0 0 0 0 0 0 0 0 0 0 0 0 0 0 0 1 1 0 17 0 0 0 0 0 0 47 293 597 651 596 528 286 429 355 320 296 502 433 342 315 196 20 13 0 0 0 0 142 300 346 322 322 360 408 450 481 502 621 858 996 905 884 907 981 968 933 858 875 615 536 846 920 1003 1007 966 940 995 946 985 1025 1127 1020
7 4 0 1 12 0 0 0 0 0 0 0 0 0 0 0 0 0 0 0 0 0 0 0 0 0 0 0 0 0 7 234 585 633 604 544 285 208 297 221 138 418 441 438 410 326 255 120 0 0 0 0 0 0 0 0 14 18 18 0 0 313 391 425 461 536 731 694 853 1135 1248 1088 977 919 865 844 751 837 742 866 1112 1230 1014 1028 926 821
132 24 12 18 14 1 0 0 0 1 0 1 0 0 0 0 0 0 0 0 0 0 0 0 0 0 1 1 0 0 0 5 25 425 597 640 272 164 149 216 203 122 201 334 336 292 296 224 0 0 0 0 0 0 0 0 0 0 0 0 0 0 0 0 0 94 138 261 290 449 510 670 730 738 734 696 746 739 753 989 965 808 855 849 806 862
67 74 65 34 14 0 0 0 1 1 1 0 0 0 0 0 0 0 0 1 0 0 0 0 0 0 0 0 0 0 0 0 6 11 110 422 510 323 15 135 205 121 77 201 338 288 286 253 0 0 0 0 0 0 0 0 0 0 0 0 0 0 0 0 0 0 0 0 0 4 26 35 66 149 279 330 295 562 783 1031 1065 936 812 855 709 666
8 1 0 0 0 0 0 1 1 0 0 0 0 0 0 0 0 0 0 0 0 0 0 0 0 0 0 0 0 0 0 0 3 33 62 146 228 293 302 107 16 9 56 22 60 191 206 167 79 0 0 0 0 0 0 0 0 0 0 0 0 0 0 0 0 0 0 0 0 0 0 3 8 25 60 84 97 104 138 180 179 156 107 114 119 100
9 12 0 0 0 0 3 7 1 0 0 0 0 0 0 0 0 0 0 0 0 0 0 0 0 0 0 0 0 0 0 0 7 40 55 80 109 143 185 107 71 8 14 26 14 28 23 13 9 5 0 0 0 0 0 0 0 0 0 0 0 0 0 0 0 0 0 1 0 0 0 0 0 2 10 13 19 28 53 92 107 64 36 38 20 5
0 1 0 0 0 0 13 22 0 0 2 1 0 0 0 0 0 0 0 0 0 0 0 0 0 0 0 0 0 0 0 0 0 11 18 51 77 69 82 68 40 25 22 76 96 105 87 45 15 9 4 0 0 0 0 0 0 2 2 0 0 0 0 2 2 0 0 0 0 0 0 0 0 0 0 1 2 10 28 25 20 29 7 7 4 3
0 4 8 19 12 0 10 36 36 24 6 7 10 4 4 0 0 0 0 0 0 0 0 0 0 0 0 0 0 0 0 0 0 0 0 0 7 16 25 11 15 17 24 36 44 40 17 34 42 5 4 5 0 0 0 0 0 0 0 0 0 0 0 0 0 0 0 0 0 0 0 0 0 0 0 0 7 24 53 51 27 31 29 22 5 11
0 0 4 14 24 0 31 20 62 0 0 0 0 0 0 0 0 0 3 0 0 0 0 0 0 0 0 0 0 0 0 1 0 0 0 0 0 0 0 0 0 0 2 4 4 6 5 1 0 3 3 1 0 0 0 0 0 0 0 0 0 0 0 0 0 0 0 0 0 0 0 0 0 0 0 0 0 0 0 20 276 118 79 55 10 31
0 0 0 0 31 1 0 25 0 0 0 0 0 0 0 0 0 0 13 0 0 0 0 0 0 0 0 0 0 0 0 0 0 0 0 0 0 0 0 0 0 0 0 0 0 1 1 1 2 2 2 1 0 0 0 0 0 2 1 0 0 0 0 0 0 0 0 0 0 0 0 0 0 0 0 0 7 19 37 65 75 15 60 28 0 0
0 0 0 0 0 1 2 1 1 0 0 0 0 0 0 0 0 0 0 0 0 0 0 0 0 0 0 0 0 0 0 0 0 0 0 0 0 0 0 0 0 0 0 0 0 0 0 0 0 0 0 0 0 0 0 0 0 1 5 3 0 0 0 0 0 0 0 0 0 0 0 0 0 7 33 17 8 11 19 4 3 3 2 1 2 17
0 0 0 0 0 0 0 1 0 7 0 0 0 1 4 0 0 0 0 0 0 0 0 0 0 0 0 0 0 0 0 0 0 0 0 0 0 0 0 0 0 0 0 0 0 0 0 0 0 0 0 0 0 0 0 0 0 0 0 0 0 0 0 0 0 1 2 3 3 1 0 0 0 23 56 109 122 76 32 23 28 17 6 0 3 5
0 0 1 0 0 0 0 9 1 0 0 0 0 0 0 1 0 0 0 0 0 0 0 0 0 0 0 0 0 0 0 0 0 0 0 0 0 0 0 0 0 0 0 0 0 0 0 0 0 0 0 0 0 0 0 0 0 0 0 0 0 0 0 0 0 0 3 7 9 5 0 0 0 0 32 90 96 63 52 55 44 46 39 39 14 10
0 0 0 0 0 0 4 0 0 0 0 1 0 0 0 0 2 3 6 1 0 0 0 0 0 0 0 0 0 0 0 0 0 0 0 0 0 0 0 1 2 2 1 0 0 0 0 0 0 0 0 0 0 0 0 0 0 0 0 0 0 0 0 0 0 0 0 0 0 0 0 0 0 0 1 28 38 2 4 4 67 1 53 64 59 30
0 0 0 0 0 1 1 1 0 2 0 2 1 0 0 0 0 0 0 0 0 0 0 2 1 0 0 0 0 0 0 0 0 0 0 0 0 0 0 0 0 0 1 2 4 7 6 4 1 0 0 0 0 0 0 0 0 0 0 0 0 0 0 0 0 0 0 0 0 0 1 0 0 0 11 32 25 89 132 115 122 133 91 102 92 67
0 0 0 0 3 0 6 1 4 6 7 10 12 10 7 0 0 0 0 0 0 0 1 2 3 5 4 2 3 2 1 2 2 1 2 1 0 0 0 0 2 5 4 6 9 10 10 4 2 0 0 0 0 0 0 0 0 0 0 0 0 0 0 0 0 0 0 0 0 0 0 0 0 1 4 83 108 50 82 105 157 198 104 96 121 94
0 0 0 0 0 0 4 0 1 0 3 3 4 6 7 5 3 3 1 0 0 0 2 2 2 1 1 1 0 0 1 2 1 2 3 3 3 2 1 1 2 4 3 3 0 0 0 0 0 0 0 0 0 0 0 0 0 0 0 0 0 0 0 0 0 0 0 0 0 0 1 5 5 4 6 8 4 117 87 77 105 231 148 180 115 134
0 0 0 0 0 0 0 0 0 0 0 0 0 0 7 1 0 0 0 0 0 0 0 0 0 0 0 0 0 0 0 0 0 0 0 0 0 0 0 0 0 0 0 0 0 0 0 0 0 0 0 0 0 0 0 0 0 0 0 0 0 0 0 0 0 0 0 0 0 0 0 0 5 9 11 9 2 115 150 198 174 126 151 253 495 496
0 0 0 1 1 5 0 0 0 3 5 0 0 0 0 0 0 0 0 0 0 0 0 0 0 0 0 0 0 0 0 0 0 0 0 0 0 0 0 0 0 0 0 0 0 0 0 0 0 0 0 0 0 0 0 0 0 0 0 0 0 0 0 0 0 0 0 0 0 0 0 0 0 1 3 4 4 101 235 0 34 63 299 372 120 120
3 2 3 7 9 17 5 0 1 0 4 13 5 1 0 0 0 0 0 0 0 0 0 0 0 0 0 0 0 0 0 0 0 0 0 0 0 0 0 0 0 0 0 0 0 0 0 0 0 0 1 2 4 0 0 0 0 0 0 0 0 0 0 0 0 0 0 0 0 0 0 0 2 10 21 26 34 58 129 219 4 0 0 0 0 0
Wind_Speed
nan nan nan nan nan nan nan nan nan nan nan nan nan nan nan nan nan nan nan nan nan nan nan nan nan nan nan 25 26 25 24 22 22 23 22 23 23 21 19 18 19 19 19 19 21 23 23 22 23 20 20 20 20 21 20 20 21 20 16 21 19 22 21 19 16 15 15 15 16 17 17 18 18 18 18 16 15 14 15 15 16 15 15 15 16 15
nan nan nan nan nan nan nan nan nan nan nan nan nan nan nan nan nan nan nan nan nan nan nan nan nan nan nan 26 25 24 22 21 21 21 20 20 20 20 17 16 17 18 18 17 20 21 21 22 24 22 22 22 21 20 20 19 22 18 20 20 22 21 19 17 15 15 15 17 17 17 18 18 19 18 16 16 15 15 15 15 16 15 15 15 15 15
nan nan nan nan nan nan nan nan nan nan nan nan nan nan nan nan nan nan nan nan nan nan nan nan nan nan 25 23 24 20 19 19 18 17 17 16 17 18 16 15 16 17 16 16 16 20 20 22 25 23 23 21 19 20 18 20 23 22 24 27 25 23 21 18 15 16 17 18 18 16 18 18 18 18 16 15 15 14 14 14 14 14 14 14 15 15
nan nan nan nan nan nan nan nan nan nan nan nan nan nan nan nan nan nan nan nan nan nan nan nan nan nan 25 24 23 20 15 16 15 14 14 14 15 15 15 15 15 14 14 14 15 17 20 22 26 25 24 21 19 18 18 19 22 24 21 30 31 30 22 17 17 17 19 19 18 19 20 20 17 15 15 15 14 13 13 13 13 14 13 14 15 16
nan nan nan nan nan nan nan nan nan nan nan nan nan nan nan nan nan nan nan nan nan nan nan nan nan nan 20 18 16 16 16 14 12 12 10 11 12 13 13 13 11 10 10 10 13 15 19 24 25 26 26 22 19 17 16 20 16 14 16 20 18 15 14 17 20 21 20 20 21 22 23 22 20 16 13 12 13 13 nan nan 13 14 13 14 16 16
nan nan nan nan nan nan nan nan nan nan nan nan nan nan nan nan nan nan nan nan nan nan nan nan nan nan nan 15 12 16 14 9 10 9 8 7 9 9 7 7 7 7 7 7 10 14 20 26 26 24 26 20 16 13 13 15 14 13 12 16 21 29 23 22 23 21 20 22 24 24 21 20 17 16 13 13 13 nan nan nan 13 14 14 15 16 15
nan nan nan nan nan nan nan nan nan nan nan nan nan nan nan nan nan nan nan nan nan nan nan nan nan nan nan nan 14 15 11 10 10 7 7 8 7 5 5 6 7 7 7 8 12 18 25 39 37 35 26 12 8 10 12 16 18 14 11 12 26 28 26 23 22 20 21 24 24 23 21 20 18 17 16 16 16 15 nan 13 13 15 16 16 17 17
nan nan nan nan nan nan nan nan nan nan nan nan nan nan nan nan nan nan nan nan nan nan nan nan nan nan nan 18 16 14 11 10 10 8 7 8 7 6 6 8 10 9 10 13 19 33 40 34 27 23 14 4 7 9 11 15 16 14 15 17 22 24 25 24 21 20 21 22 22 21 21 22 20 19 20 18 17 16 14 15 nan nan 17 nan nan nan
nan nan nan nan nan nan nan nan nan nan nan nan nan nan nan nan nan nan nan nan nan nan nan nan nan nan nan nan nan 14 11 10 11 9 9 9 9 8 8 10 11 11 14 20 29 35 25 28 25 21 15 10 9 9 12 15 17 19 22 20 18 19 22 22 26 25 23 20 21 22 21 22 23 22 21 19 18 16 16 16 nan nan nan nan nan nan
nan nan nan nan nan nan nan nan nan nan nan nan nan nan nan nan nan nan nan nan nan nan nan nan nan nan nan nan 15 14 12 15 15 14 13 13 12 12 11 11 11 12 17 24 33 28 23 25 23 22 22 18 16 19 19 15 21 33 30 17 16 19 20 22 26 28 26 22 21 22 23 24 23 22 21 20 19 18 17 18 16 nan nan nan nan nan
nan nan nan nan nan nan nan nan nan nan nan nan nan nan nan nan nan nan nan nan nan nan nan nan 17 nan nan nan nan nan 21 25 21 20 22 21 19 15 14 12 13 15 22 29 27 27 26 24 23 22 20 23 26 27 25 25 31 30 28 26 16 19 20 21 23 25 25 23 20 21 23 23 22 22 21 21 20 19 20 nan nan nan nan nan nan nan
nan nan nan nan nan nan nan nan nan nan nan nan nan nan nan nan nan nan nan nan nan nan 19 nan 16 nan nan nan nan 27 24 23 24 25 25 24 23 21 18 15 15 19 29 31 28 26 24 23 25 26 29 32 34 32 30 34 32 27 30 27 19 15 19 20 21 23 24 25 23 21 22 22 21 21 21 21 21 21 22 21 nan nan nan nan nan nan
nan nan nan nan nan nan nan nan nan nan nan nan nan nan nan nan nan nan nan nan nan nan 24 nan nan nan nan 27 30 28 25 26 28 27 27 26 26 25 22 20 21 24 33 32 29 28 26 27 31 35 38 34 29 28 28 29 31 26 22 22 20 15 16 19 21 23 24 27 29 27 23 20 20 19 21 22 22 22 22 nan nan nan nan nan nan nan
nan nan nan nan nan nan nan nan nan nan nan nan nan nan nan nan nan nan nan nan nan nan nan nan nan nan nan 30 33 30 28 28 29 30 29 30 29 28 27 26 26 27 34 35 31 29 29 31 32 39 35 30 26 26 27 28 29 25 25 26 27 22 18 19 21 24 27 28 32 31 24 19 19 20 21 22 22 22 nan nan nan nan nan nan nan nan
nan nan nan nan nan nan nan nan nan nan nan nan nan nan nan nan nan nan nan nan nan nan nan nan nan nan nan nan 32 32 30 30 30 31 32 32 32 32 32 33 34 35 38 36 32 29 31 36 40 41 37 32 25 23 24 27 28 28 28 27 26 25 22 24 26 26 27 31 32 30 23 19 17 17 19 20 22 22 24 nan nan nan nan nan nan nan
nan nan nan nan nan nan nan nan nan nan nan nan nan nan nan nan nan nan nan 19 nan nan nan nan nan nan 28 29 28 29 32 33 34 34 34 36 35 35 36 36 37 38 38 37 36 36 38 44 48 41 35 28 24 22 23 26 28 28 28 26 26 27 28 28 28 23 27 29 32 32 26 22 18 16 16 18 19 20 22 23 nan nan nan nan nan nan
nan nan nan nan nan nan nan nan nan nan nan nan nan nan nan nan nan nan nan 25 nan nan nan nan nan nan nan 25 30 30 32 35 35 37 37 38 39 39 40 39 39 39 39 41 42 41 44 48 48 44 40 32 27 23 22 23 28 29 28 27 26 29 30 28 23 21 25 23 23 27 24 20 18 17 17 17 19 20 21 21 22 nan nan nan nan nan
nan nan nan nan nan nan nan nan nan nan nan nan nan nan nan nan nan nan nan nan nan nan nan nan nan nan nan nan 26 26 30 36 38 39 41 40 41 42 41 41 42 43 45 45 45 46 48 48 47 42 42 41 34 30 24 24 30 30 28 26 23 22 26 25 18 17 20 16 14 18 17 16 16 16 17 18 18 18 19 20 21 22 nan nan nan nan
nan nan nan nan nan nan nan nan nan nan nan nan nan nan nan nan nan nan nan nan nan nan nan nan nan nan nan 21 21 19 23 31 35 37 39 40 41 42 42 42 43 43 42 41 42 44 45 45 45 42 40 40 35 32 31 31 32 31 28 25 21 20 21 18 15 14 15 13 14 14 15 15 15 15 15 16 16 17 18 19 nan nan 22 nan nan nan
nan nan nan nan nan nan nan nan nan nan nan nan nan nan nan nan nan nan nan nan nan nan nan nan nan nan nan nan 20 19 22 26 29 31 33 36 36 36 37 37 36 36 35 36 38 41 43 43 41 40 39 38 37 34 27 29 32 33 32 31 28 24 23 17 15 16 15 14 14 14 15 15 14 15 16 17 17 17 18 19 20 22 22 24 nan nan
nan nan nan nan nan nan nan nan nan nan nan nan nan nan nan nan nan nan nan nan nan nan nan nan nan nan 22 27 23 23 22 21 23 27 29 30 31 32 33 31 31 31 31 32 34 37 39 39 37 34 31 34 37 36 29 30 30 30 28 28 28 27 26 22 17 16 14 13 13 13 14 15 15 16 17 18 17 16 17 18 20 21 22 23 24 24
nan nan nan nan nan nan nan nan nan nan nan nan nan nan nan nan nan nan nan nan nan nan nan nan nan nan nan 21 23 24 23 18 21 23 25 26 27 27 27 27 26 28 28 30 31 34 35 36 34 32 31 32 33 34 29 28 26 27 24 20 18 19 21 19 14 10 9 12 13 13 14 15 16 16 17 16 15 14 16 17 19 21 22 22 22 23
nan nan nan nan nan nan nan nan nan nan nan nan nan nan nan nan nan nan nan nan nan nan nan nan nan 18 21 20 21 21 21 21 21 21 23 24 24 24 24 24 24 24 27 28 29 32 33 33 32 29 28 30 31 29 27 25 25 25 21 17 15 13 13 11 10 11 11 12 13 12 14 15 15 15 15 14 14 14 15 16 18 20 21 21 22 22
34 nan nan nan nan nan nan nan nan nan nan nan nan nan nan nan nan nan nan nan nan nan nan nan nan 21 22 21 20 20 21 22 22 23 23 24 24 24 24 24 23 25 26 26 27 29 30 31 30 29 26 26 28 28 25 22 23 22 18 14 14 14 12 11 12 13 13 13 12 12 13 14 15 14 15 15 15 15 17 18 19 20 21 23 23 24
nan nan nan nan nan nan nan nan nan nan nan nan nan nan nan nan nan 31 nan nan nan nan nan nan nan 22 23 21 20 20 21 22 23 25 24 26 26 26 26 25 24 25 24 25 27 28 29 30 30 28 26 25 26 25 23 20 18 16 14 11 10 11 12 12 13 13 12 11 12 13 13 15 16 15 16 17 17 17 18 19 19 19 20 21 21 21
nan nan nan nan nan nan nan nan nan nan nan nan nan nan nan nan nan nan nan nan nan nan nan nan nan 27 23 23 25 23 24 26 26 26 26 26 26 26 26 25 25 25 25 26 28 29 29 29 29 28 26 24 24 24 23 20 17 15 13 13 12 12 12 14 15 14 12 13 13 15 15 18 19 19 19 20 19 19 20 20 19 18 17 18 19 19
nan nan nan nan nan nan nan nan nan nan nan nan nan nan nan nan nan nan nan nan nan 24 nan nan 22 26 24 24 26 27 24 25 25 25 25 26 27 27 26 26 26 26 27 28 29 29 29 30 31 30 28 26 25 25 24 21 18 16 15 15 15 15 16 16 17 17 17 17 16 16 17 20 22 23 23 22 20 18 20 20 20 19 18 17 18 19
nan nan nan nan nan nan nan nan nan nan nan nan nan nan nan nan nan 28 nan 23 nan nan nan 28 30 30 30 30 28 28 27 27 27 26 26 26 26 27 28 28 29 29 29 29 29 29 30 31 32 32 31 28 27 26 25 24 23 21 19 19 19 19 19 18 19 20 21 21 20 19 20 21 23 24 18 16 18 20 19 19 20 19 20 19 19 19
nan nan nan nan nan nan nan nan nan nan nan nan nan nan nan nan nan nan nan nan 34 nan nan 32 32 34 nan nan nan 32 30 29 28 28 28 28 28 29 29 30 32 32 33 nan 33 33 33 33 32 33 32 31 29 28 27 27 26 25 24 23 24 24 23 21 21 22 22 22 22 21 21 22 24 23 22 21 22 25 20 20 21 22 24 25 25 23
nan nan nan nan nan nan nan nan nan nan nan nan nan nan nan nan nan nan nan nan nan 37 38 39 42 nan nan nan 35 35 33 33 32 31 30 30 30 31 31 32 34 35 nan nan 38 nan nan 36 36 34 34 33 31 30 29 28 28 28 28 27 26 26 26 25 25 26 26 26 26 25 23 23 24 24 27 29 27 25 25 25 26 27 30 30 31 31
19 nan nan nan nan nan nan nan nan nan nan nan nan nan nan nan nan nan nan nan nan nan nan 42 nan nan nan nan nan 36 34 35 37 39 38 37 36 35 33 35 37 39 40 nan nan nan nan nan nan nan 36 35 34 33 31 30 31 31 32 31 31 31 29 30 29 30 31 32 31 31 29 29 30 30 31 31 32 31 30 31 33 33 34 32 33 34
23 nan nan nan nan nan nan nan nan nan nan nan nan nan nan nan nan nan nan nan nan nan nan nan nan nan nan nan nan nan 41 42 43 43 42 43 43 39 38 38 41 42 43 43 42 nan nan nan nan nan nan 37 37 37 35 34 35 35 35 35 36 35 36 36 36 36 36 36 36 35 35 35 34 33 35 36 37 36 35 36 36 36 37 38 38 37
nan nan nan nan nan nan nan nan nan nan nan nan nan nan nan nan nan nan nan nan nan nan nan nan nan nan nan nan nan nan nan 47 48 46 46 48 47 44 43 43 44 44 45 46 45 45 44 44 nan nan nan nan nan nan nan nan nan nan nan nan nan 40 41 41 41 42 42 41 41 41 40 40 39 39 39 40 41 42 41 38 38 40 42 42 43 43
31 nan nan nan nan nan nan nan nan nan nan nan nan nan nan nan nan nan nan nan nan nan nan nan nan nan nan nan nan nan nan nan nan 51 50 49 49 51 48 46 45 45 46 47 47 47 46 45 nan nan nan nan nan nan nan nan nan nan nan nan nan nan nan nan nan nan 47 47 48 47 46 45 44 44 43 42 42 43 41 41 41 43 44 46 45 46
nan nan nan nan nan nan nan nan nan nan nan nan nan nan nan nan nan nan nan nan nan nan nan nan nan nan nan nan nan nan nan nan nan nan 51 52 54 52 nan 46 43 45 nan 50 50 49 48 48 nan nan nan nan nan nan nan nan nan nan nan nan nan nan nan nan nan nan nan nan nan nan nan nan nan 45 44 44 43 44 45 46 47 47 48 48 49 50
nan nan nan nan nan nan nan nan nan nan nan nan nan nan nan nan nan nan nan nan nan nan nan nan nan nan nan nan nan nan nan nan nan nan nan 50 51 52 52 45 nan nan nan nan nan 49 50 50 nan nan nan nan nan nan nan nan nan nan nan nan nan nan nan nan nan nan nan nan nan nan nan nan nan nan nan nan nan 46 47 48 48 49 49 48 49 50
nan nan nan nan nan nan nan nan nan nan nan nan nan nan nan nan nan nan nan nan nan nan nan nan nan nan nan nan nan nan nan nan nan nan nan nan 48 49 48 48 nan nan nan nan nan nan nan nan nan nan nan nan nan nan nan nan nan nan nan nan nan nan nan nan nan nan nan nan nan nan nan nan nan nan nan nan nan nan nan nan 47 nan nan nan nan nan
nan nan nan nan nan nan nan nan nan nan nan nan nan nan nan nan nan nan nan nan nan nan nan nan nan nan nan nan nan nan nan nan nan nan nan nan nan nan nan nan nan nan nan nan nan 53 nan nan nan nan nan nan nan nan nan nan nan nan nan nan nan nan nan nan nan nan nan nan nan nan nan nan nan nan nan nan nan nan nan nan nan nan nan nan nan nan
nan nan nan nan nan nan nan nan nan nan nan nan nan nan nan nan nan nan nan nan nan nan nan nan nan nan nan nan nan nan nan nan nan nan nan nan nan nan nan nan nan nan nan nan nan nan nan nan nan nan nan nan nan nan nan nan nan nan nan nan nan nan nan nan nan nan nan nan nan nan nan nan nan nan nan nan nan nan nan nan nan nan nan nan nan nan
nan nan nan nan nan nan nan nan nan nan nan nan nan nan nan nan nan nan nan nan nan nan nan nan nan nan nan nan nan nan nan nan nan nan nan nan nan nan nan nan nan nan nan nan nan nan nan nan nan nan nan nan nan nan nan nan nan nan nan nan nan nan nan nan nan nan nan nan nan nan nan nan nan nan nan nan nan nan nan nan 40 36 nan nan nan nan
nan nan nan nan nan nan nan nan nan nan nan nan nan nan nan nan nan nan nan nan nan nan nan nan nan nan nan nan nan nan nan nan nan nan nan nan nan nan nan nan nan nan nan nan nan nan nan nan nan nan nan nan nan nan nan nan nan nan nan nan nan nan nan nan nan nan nan nan nan nan nan nan nan nan nan nan nan nan nan nan nan nan nan nan nan nan
nan nan nan nan nan nan nan nan nan nan nan nan nan nan nan nan nan nan nan nan nan nan nan nan nan nan nan nan nan nan nan nan nan nan nan nan nan nan nan nan nan nan nan nan nan nan nan nan nan nan nan nan nan nan nan nan nan nan nan nan nan nan nan nan nan nan nan nan nan nan nan nan nan nan nan nan nan nan nan nan nan nan nan nan nan nan
nan nan nan nan nan nan nan nan nan nan nan nan nan nan nan nan nan nan nan nan nan nan nan nan nan nan nan nan nan nan nan nan nan nan nan nan nan nan nan nan nan nan nan nan nan nan nan nan nan nan nan nan nan nan nan nan nan nan nan nan nan nan nan nan nan nan nan nan nan nan nan nan nan nan nan 52 51 nan nan nan nan nan nan nan nan nan
nan nan nan nan nan nan nan nan nan nan nan nan nan nan nan nan nan nan nan nan nan nan nan nan nan nan nan nan nan nan nan nan nan nan nan nan nan nan nan nan nan nan nan nan nan nan nan nan nan nan nan nan nan nan nan nan nan nan nan nan nan nan nan nan nan nan nan nan nan nan nan nan nan nan nan nan nan nan nan nan nan nan nan nan nan nan
nan nan nan nan nan nan nan nan nan nan nan nan nan nan nan nan nan nan nan nan nan nan nan nan nan nan nan nan nan nan nan nan nan nan nan nan nan nan nan nan nan nan nan nan nan nan nan nan nan nan nan nan nan nan nan nan nan nan nan nan nan nan nan nan nan nan nan nan nan nan nan nan nan nan nan nan nan nan nan nan nan nan nan nan nan nan
nan nan nan nan nan nan nan nan nan nan nan nan nan nan nan nan nan nan nan nan nan nan nan nan nan nan nan nan nan nan nan nan nan nan nan nan nan nan nan nan nan nan nan nan nan nan nan nan nan nan nan nan nan nan nan nan nan nan nan nan nan nan nan nan nan nan nan nan nan nan nan nan nan nan nan nan nan nan 51 50 51 51 nan 50 nan nan
nan nan nan nan nan nan nan nan nan nan nan nan nan nan nan nan nan nan nan nan nan nan nan nan nan nan nan nan nan nan nan nan nan nan nan nan nan nan nan nan nan nan nan nan nan nan nan nan nan nan nan nan nan nan nan nan nan nan nan nan nan nan nan nan nan nan nan nan nan nan nan nan nan nan nan nan 56 nan nan 52 51 52 50 nan 49 nan
nan nan nan nan nan nan nan nan nan nan nan nan nan nan nan nan nan nan nan nan nan nan nan nan nan nan nan nan nan nan nan nan nan nan nan nan nan nan nan nan nan nan nan nan nan nan nan nan nan nan nan nan nan nan nan nan nan nan nan nan nan nan nan nan nan nan nan nan nan nan nan nan nan nan nan nan nan 57 nan nan 53 51 51 50 50 48
nan nan nan nan nan nan nan nan nan nan nan nan nan nan nan nan nan nan nan nan nan nan nan nan nan nan nan nan nan nan nan nan nan nan nan nan nan nan nan nan nan nan nan nan nan nan nan nan nan nan nan nan nan nan nan nan nan nan nan nan nan nan nan nan nan nan nan nan nan nan nan nan nan nan nan nan nan 59 58 59 56 54 52 57 58 58
nan nan nan nan nan nan nan nan nan nan nan nan nan nan nan nan nan nan nan nan nan nan nan nan nan nan nan nan nan nan nan nan nan nan nan nan nan nan nan nan nan nan nan nan nan nan nan nan nan nan nan nan nan nan nan nan nan nan nan nan nan nan nan nan nan nan nan nan nan nan nan nan nan nan nan nan nan 56 61 nan nan nan 60 65 71 72
nan nan nan nan nan nan nan nan nan nan nan nan nan nan nan nan nan nan nan nan nan nan nan nan nan nan nan nan nan nan nan nan nan nan nan nan nan nan nan nan nan nan nan nan nan nan nan nan nan nan nan nan nan nan nan nan nan nan nan nan nan nan nan nan nan nan nan nan nan nan nan nan nan nan nan nan nan nan 54 59 nan nan nan nan nan nan
Wind_Direction
nan nan nan nan nan nan nan nan nan nan nan nan nan nan nan nan nan nan nan nan nan nan nan nan nan nan nan 257 257 260 261 263 266 271 268 270 271 272 273 274 277 282 285 283 290 295 297 301 291 291 291 293 293 286 286 287 282 286 291 276 268 241 228 245 244 236 236 234 235 236 241 244 245 247 249 250 253 258 263 266 270 271 271 272 274 279
nan nan nan nan nan nan nan nan nan nan nan nan nan nan nan nan nan nan nan nan nan nan nan nan nan nan nan 258 261 262 266 272 271 271 269 268 268 265 268 269 274 278 276 285 289 293 298 296 293 288 286 286 285 276 273 275 277 278 275 259 242 237 238 235 241 239 234 235 236 242 246 248 248 250 251 254 257 257 260 262 263 265 269 275 278 278
nan nan nan nan nan nan nan nan nan nan nan nan nan nan nan nan nan nan nan nan nan nan nan nan nan nan 256 261 260 263 267 266 266 264 262 263 264 262 262 264 269 273 283 287 293 297 298 299 293 284 276 272 267 263 266 263 265 265 238 218 223 225 220 231 238 238 240 240 246 248 251 251 248 245 250 256 256 259 263 262 265 265 268 275 279 279
nan nan nan nan nan nan nan nan nan nan nan nan nan nan nan nan nan nan nan nan nan nan nan nan nan nan 255 254 257 248 248 255 256 256 255 249 254 255 264 270 277 285 292 298 301 302 296 292 282 272 263 258 255 252 255 261 255 248 247 216 212 209 211 230 235 236 245 247 250 254 254 248 249 260 262 264 265 262 268 271 267 270 271 274 278 279
nan nan nan nan nan nan nan nan nan nan nan nan nan nan nan nan nan nan nan nan nan nan nan nan nan nan 258 263 260 261 249 249 251 251 248 256 249 255 260 275 287 298 300 297 301 296 289 284 277 266 256 252 250 248 256 257 256 253 245 242 234 244 218 240 240 240 249 253 261 265 260 254 257 268 272 270 265 259 nan nan 272 271 271 276 275 274
nan nan nan nan nan nan nan nan nan nan nan nan nan nan nan nan nan nan nan nan nan nan nan nan nan nan nan 261 262 260 253 253 258 265 271 263 271 271 274 280 283 287 294 287 282 278 272 263 247 250 254 249 247 249 260 267 265 257 247 224 227 228 223 237 248 251 259 263 275 280 275 268 266 269 269 264 260 nan nan nan 266 268 267 270 271 272
nan nan nan nan nan nan nan nan nan nan nan nan nan nan nan nan nan nan nan nan nan nan nan nan nan nan nan nan 263 265 267 270 265 262 266 264 255 251 246 258 272 280 272 253 245 251 252 250 251 249 245 209 248 253 262 274 269 266 254 228 234 246 244 250 264 267 264 271 276 281 276 269 266 264 257 250 252 251 nan 257 260 263 264 270 275 270
nan nan nan nan nan nan nan nan nan nan nan nan nan nan nan nan nan nan nan nan nan nan nan nan nan nan nan 253 254 262 269 278 277 268 256 245 235 232 240 256 263 262 252 244 243 245 253 267 275 279 287 238 231 243 261 271 273 279 260 248 250 248 246 254 264 263 268 279 278 276 272 268 266 262 257 256 254 252 254 256 nan nan 271 nan nan nan
nan nan nan nan nan nan nan nan nan nan nan nan nan nan nan nan nan nan nan nan nan nan nan nan nan nan nan nan nan 258 268 276 270 256 252 243 240 247 261 263 268 256 241 241 246 260 293 308 313 303 291 260 245 274 274 274 270 269 257 254 252 245 243 253 263 262 268 280 282 272 269 269 264 262 259 256 259 259 259 263 nan nan nan nan nan nan
nan nan nan nan nan nan nan nan nan nan nan nan nan nan nan nan nan nan nan nan nan nan nan nan nan nan nan nan 253 242 239 258 252 248 241 240 244 248 257 260 256 250 240 242 256 282 306 318 314 312 312 293 269 277 285 274 260 238 218 233 240 243 241 253 260 261 264 273 278 270 268 270 267 263 260 260 263 266 268 268 270 nan nan nan nan nan
nan nan nan nan nan nan nan nan nan nan nan nan nan nan nan nan nan nan nan nan nan nan nan nan 236 nan nan nan nan nan 231 230 236 240 234 231 232 236 240 243 254 251 247 251 267 289 307 309 310 309 292 277 260 259 259 254 257 244 212 200 216 242 245 254 262 265 262 261 270 270 271 271 270 269 266 266 268 268 270 nan nan nan nan nan nan nan
nan nan nan nan nan nan nan nan nan nan nan nan nan nan nan nan nan nan nan nan nan nan 246 nan 229 nan nan nan nan 239 238 229 223 231 231 231 233 236 240 243 251 259 260 267 271 291 301 302 299 291 275 267 263 261 258 264 268 252 235 218 198 243 258 262 265 268 261 252 256 270 277 270 268 270 266 270 270 270 271 271 nan nan nan nan nan nan
nan nan nan nan nan nan nan nan nan nan nan nan nan nan nan nan nan nan nan nan nan nan 241 nan nan nan nan 224 242 248 235 230 226 226 229 231 233 238 242 248 252 260 273 271 277 288 293 296 294 279 264 273 282 289 290 282 283 287 276 263 244 256 267 265 269 274 269 256 250 262 277 273 264 265 267 269 270 270 269 nan nan nan nan nan nan nan
nan nan nan nan nan nan nan nan nan nan nan nan nan nan nan nan nan nan nan nan nan nan nan nan nan nan nan 243 238 244 238 233 233 236 236 237 239 243 249 256 260 266 271 271 279 287 291 291 292 282 289 292 294 299 300 291 288 288 286 280 261 262 271 266 267 274 277 267 252 253 267 271 263 261 264 265 269 270 nan nan nan nan nan nan nan nan
nan nan nan nan nan nan nan nan nan nan nan nan nan nan nan nan nan nan nan nan nan nan nan nan nan nan nan nan 239 239 243 242 242 245 247 247 248 249 251 257 261 263 268 272 279 284 286 287 280 277 286 292 293 293 293 292 285 278 281 283 268 260 270 278 276 271 275 267 250 242 253 265 265 261 260 261 266 269 271 nan nan nan nan nan nan nan
nan nan nan nan nan nan nan nan nan nan nan nan nan nan nan nan nan nan nan 218 nan nan nan nan nan nan 240 250 245 243 245 246 247 249 251 252 252 253 255 257 260 265 270 277 281 283 282 281 280 282 281 281 279 287 286 285 285 281 275 281 279 268 271 278 275 271 274 261 242 235 249 264 263 259 256 258 261 263 267 268 nan nan nan nan nan nan
nan nan nan nan nan nan nan nan nan nan nan nan nan nan nan nan nan nan nan 247 nan nan nan nan nan nan nan 256 255 250 249 248 248 250 251 252 253 254 255 257 260 265 270 274 274 273 275 274 277 285 289 288 277 269 284 292 289 280 269 271 274 264 264 270 270 261 261 256 240 238 251 262 259 256 260 262 268 264 263 266 269 nan nan nan nan nan
nan nan nan nan nan nan nan nan nan nan nan nan nan nan nan nan nan nan nan nan nan nan nan nan nan nan nan nan 259 253 252 250 249 249 251 252 253 254 254 255 259 262 264 267 271 273 274 276 280 281 281 285 282 276 274 274 277 276 263 267 271 261 258 261 260 248 242 237 230 237 248 253 254 256 260 261 266 264 265 266 267 268 nan nan nan nan
nan nan nan nan nan nan nan nan nan nan nan nan nan nan nan nan nan nan nan nan nan nan nan nan nan nan nan 256 259 259 252 251 250 252 254 255 255 256 258 260 261 263 264 264 266 267 267 270 274 274 273 273 271 272 270 262 272 277 268 261 267 256 241 233 222 223 226 229 227 233 244 249 247 246 246 252 261 264 270 274 nan nan 274 nan nan nan
nan nan nan nan nan nan nan nan nan nan nan nan nan nan nan nan nan nan nan nan nan nan nan nan nan nan nan nan 257 253 249 251 252 253 253 255 257 258 261 261 261 261 262 263 264 264 266 268 271 274 276 280 275 269 273 273 270 276 268 259 260 253 234 221 223 229 229 232 234 233 237 238 237 238 242 252 261 265 274 279 280 281 280 279 nan nan
nan nan nan nan nan nan nan nan nan nan nan nan nan nan nan nan nan nan nan nan nan nan nan nan nan nan 245 232 236 256 251 251 254 254 255 256 257 258 260 260 258 259 259 260 260 261 263 266 268 269 271 275 272 267 268 265 266 274 268 252 250 249 244 246 248 237 225 222 220 225 231 234 236 239 241 250 258 265 272 276 280 279 278 277 278 280
nan nan nan nan nan nan nan nan nan nan nan nan nan nan nan nan nan nan nan nan nan nan nan nan nan nan nan 225 229 238 250 257 255 255 256 259 259 260 260 259 259 258 260 259 260 263 265 265 268 272 271 269 271 272 281 281 278 272 267 258 256 255 254 256 243 215 203 208 212 219 227 234 235 241 243 253 262 266 272 273 277 277 279 281 281 284
nan nan nan nan nan nan nan nan nan nan nan nan nan nan nan nan nan nan nan nan nan nan nan nan nan 247 231 222 225 230 236 251 253 253 253 257 261 262 260 263 264 263 261 260 262 264 266 271 275 276 270 268 271 276 282 285 284 279 276 273 272 270 262 249 219 204 200 204 214 223 229 236 241 247 256 265 271 277 276 274 273 276 279 280 281 283
231 nan nan nan nan nan nan nan nan nan nan nan nan nan nan nan nan nan nan nan nan nan nan nan nan 245 236 226 231 234 237 242 244 247 254 256 262 264 266 266 266 265 264 264 263 264 268 273 276 279 281 279 282 282 280 281 284 284 282 274 265 258 253 236 210 198 198 205 215 228 234 240 246 255 262 267 268 276 275 272 271 274 277 277 276 278
nan nan nan nan nan nan nan nan nan nan nan nan nan nan nan nan nan 239 nan nan nan nan nan nan nan 245 239 232 236 241 244 247 248 249 252 259 263 265 264 264 265 267 268 268 267 267 270 274 279 283 287 285 281 280 281 284 281 281 278 273 261 251 243 222 205 196 203 213 228 235 242 247 251 256 259 260 259 268 271 271 271 272 276 273 274 277
nan nan nan nan nan nan nan nan nan nan nan nan nan nan nan nan nan nan nan nan nan nan nan nan nan 241 242 238 239 243 245 247 247 250 254 257 262 264 264 266 266 264 266 265 264 265 265 268 274 280 284 282 282 282 283 283 280 275 272 268 258 251 237 224 215 220 228 238 243 242 244 245 246 249 253 255 255 263 264 266 267 269 271 273 273 270
nan nan nan nan nan nan nan nan nan nan nan nan nan nan nan nan nan nan nan nan nan 253 nan nan 243 259 254 246 246 243 246 250 253 255 257 258 257 258 263 264 264 264 264 265 265 264 265 267 268 271 271 270 273 279 279 278 275 272 268 264 261 256 250 242 237 242 249 255 257 250 246 242 239 238 240 249 248 249 259 262 265 270 273 273 272 272
nan nan nan nan nan nan nan nan nan nan nan nan nan nan nan nan nan 233 nan 228 nan nan nan 248 260 260 253 250 251 252 248 246 246 250 255 256 258 258 257 259 264 267 267 265 265 265 264 263 263 264 265 269 271 271 274 275 273 271 267 262 258 257 256 257 258 258 258 258 256 253 249 245 243 248 254 255 256 253 252 260 265 270 271 271 270 269
nan nan nan nan nan nan nan nan nan nan nan nan nan nan nan nan nan nan nan nan 218 nan nan 249 253 253 nan nan nan 247 246 247 247 245 246 252 254 257 261 263 265 267 267 nan 263 259 257 256 255 256 259 262 264 265 268 271 273 272 268 266 264 263 264 264 266 269 270 267 261 255 253 249 245 245 249 256 260 261 258 262 266 269 268 264 262 260
nan nan nan nan nan nan nan nan nan nan nan nan nan nan nan nan nan nan nan nan nan 236 236 244 249 nan nan nan 242 241 240 242 243 242 249 252 254 256 258 261 262 264 nan nan 260 nan nan 255 255 255 256 256 258 261 262 263 265 269 271 268 266 265 266 267 267 269 271 270 267 266 262 257 256 255 255 260 263 267 270 269 270 269 269 268 268 263
258 nan nan nan nan nan nan nan nan nan nan nan nan nan nan nan nan nan nan nan nan nan nan 247 nan nan nan nan nan 244 245 247 246 245 247 251 254 255 258 260 259 259 260 nan nan nan nan nan nan nan 255 256 257 259 260 261 264 266 266 266 265 264 264 265 267 267 268 268 270 270 268 262 258 257 260 263 269 270 272 274 271 271 269 267 268 268
256 nan nan nan nan nan nan nan nan nan nan nan nan nan nan nan nan nan nan nan nan nan nan nan nan nan nan nan nan nan 248 248 248 245 245 246 245 247 251 253 255 255 255 255 256 nan nan nan nan nan nan 254 256 257 258 260 262 261 261 261 261 261 261 262 263 264 266 268 268 266 265 264 262 260 258 260 263 265 267 268 268 268 269 270 270 268
nan nan nan nan nan nan nan nan nan nan nan nan nan nan nan nan nan nan nan nan nan nan nan nan nan nan nan nan nan nan nan 246 245 244 247 248 249 246 247 248 251 251 252 252 252 252 252 253 nan nan nan nan nan nan nan nan nan nan nan nan nan 263 262 262 263 264 263 263 265 265 265 265 264 264 263 263 262 261 260 262 264 264 264 267 268 267
268 nan nan nan nan nan nan nan nan nan nan nan nan nan nan nan nan nan nan nan nan nan nan nan nan nan nan nan nan nan nan nan nan 241 241 245 247 244 243 250 252 252 253 252 251 251 251 251 nan nan nan nan nan nan nan nan nan nan nan nan nan nan nan nan nan nan 263 262 262 263 263 264 264 264 264 263 263 264 265 266 266 267 266 265 265 266
nan nan nan nan nan nan nan nan nan nan nan nan nan nan nan nan nan nan nan nan nan nan nan nan nan nan nan nan nan nan nan nan nan nan 239 241 246 247 nan 243 244 251 nan 253 252 251 251 253 nan nan nan nan nan nan nan nan nan nan nan nan nan nan nan nan nan nan nan nan nan nan nan nan nan 263 263 264 264 264 264 264 266 267 265 264 265 265
nan nan nan nan nan nan nan nan nan nan nan nan nan nan nan nan nan nan nan nan nan nan nan nan nan nan nan nan nan nan nan nan nan nan nan 238 241 245 244 246 nan nan nan nan nan 254 253 252 nan nan nan nan nan nan nan nan nan nan nan nan nan nan nan nan nan nan nan nan nan nan nan nan nan nan nan nan nan 265 265 264 264 264 264 265 264 264
nan nan nan nan nan nan nan nan nan nan nan nan nan nan nan nan nan nan nan nan nan nan nan nan nan nan nan nan nan nan nan nan nan nan nan nan 243 244 246 247 nan nan nan nan nan nan nan nan nan nan nan nan nan nan nan nan nan nan nan nan nan nan nan nan nan nan nan nan nan nan nan nan nan nan nan nan nan nan nan nan 265 nan nan nan nan nan
nan nan nan nan nan nan nan nan nan nan nan nan nan nan nan nan nan nan nan nan nan nan nan nan nan nan nan nan nan nan nan nan nan nan nan nan nan nan nan nan nan nan nan nan nan 252 nan nan nan nan nan nan nan nan nan nan nan nan nan nan nan nan nan nan nan nan nan nan nan nan nan nan nan nan nan nan nan nan nan nan nan nan nan nan nan nan
nan nan nan nan nan nan nan nan nan nan nan nan nan nan nan nan nan nan nan nan nan nan nan nan nan nan nan nan nan nan nan nan nan nan nan nan nan nan nan nan nan nan nan nan nan nan nan nan nan nan nan nan nan nan nan nan nan nan nan nan nan nan nan nan nan nan nan nan nan nan nan nan nan nan nan nan nan nan nan nan nan nan nan nan nan nan
nan nan nan nan nan nan nan nan nan nan nan nan nan nan nan nan nan nan nan nan nan nan nan nan nan nan nan nan nan nan nan nan nan nan nan nan nan nan nan nan nan nan nan nan nan nan nan nan nan nan nan nan nan nan nan nan nan nan nan nan nan nan nan nan nan nan nan nan nan nan nan nan nan nan nan nan nan nan nan nan 256 258 nan nan nan nan
nan nan nan nan nan nan nan nan nan nan nan nan nan nan nan nan nan nan nan nan nan nan nan nan nan nan nan nan nan nan nan nan nan nan nan nan nan nan nan nan nan nan nan nan nan nan nan nan nan nan nan nan nan nan nan nan nan nan nan nan nan nan nan nan nan nan nan nan nan nan nan nan nan nan nan nan nan nan nan nan nan nan nan nan nan nan
nan nan nan nan nan nan nan nan nan nan nan nan nan nan nan nan nan nan nan nan nan nan nan nan nan nan nan nan nan nan nan nan nan nan nan nan nan nan nan nan nan nan nan nan nan nan nan nan nan nan nan nan nan nan nan nan nan nan nan nan nan nan nan nan nan nan nan nan nan nan nan nan nan nan nan nan nan nan nan nan nan nan nan nan nan nan
nan nan nan nan nan nan nan nan nan nan nan nan nan nan nan nan nan nan nan nan nan nan nan nan nan nan nan nan nan nan nan nan nan nan nan nan nan nan nan nan nan nan nan nan nan nan nan nan nan nan nan nan nan nan nan nan nan nan nan nan nan nan nan nan nan nan nan nan nan nan nan nan nan nan nan 268 267 nan nan nan nan nan nan nan nan nan
nan nan nan nan nan nan nan nan nan nan nan nan nan nan nan nan nan nan nan nan nan nan nan nan nan nan nan nan nan nan nan nan nan nan nan nan nan nan nan nan nan nan nan nan nan nan nan nan nan nan nan nan nan nan nan nan nan nan nan nan nan nan nan nan nan nan nan nan nan nan nan nan nan nan nan nan nan nan nan nan nan nan nan nan nan nan
nan nan nan nan nan nan nan nan nan nan nan nan nan nan nan nan nan nan nan nan nan nan nan nan nan nan nan nan nan nan nan nan nan nan nan nan nan nan nan nan nan nan nan nan nan nan nan nan nan nan nan nan nan nan nan nan nan nan nan nan nan nan nan nan nan nan nan nan nan nan nan nan nan nan nan nan nan nan nan nan nan nan nan nan nan nan
nan nan nan nan nan nan nan nan nan nan nan nan nan nan nan nan nan nan nan nan nan nan nan nan nan nan nan nan nan nan nan nan nan nan nan nan nan nan nan nan nan nan nan nan nan nan nan nan nan nan nan nan nan nan nan nan nan nan nan nan nan nan nan nan nan nan nan nan nan nan nan nan nan nan nan nan nan nan 276 275 275 275 nan 273 nan nan
nan nan nan nan nan nan nan nan nan nan nan nan nan nan nan nan nan nan nan nan nan nan nan nan nan nan nan nan nan nan nan nan nan nan nan nan nan nan nan nan nan nan nan nan nan nan nan nan nan nan nan nan nan nan nan nan nan nan nan nan nan nan nan nan nan nan nan nan nan nan nan nan nan nan nan nan 272 nan nan 274 274 274 274 nan 272 nan
nan nan nan nan nan nan nan nan nan nan nan nan nan nan nan nan nan nan nan nan nan nan nan nan nan nan nan nan nan nan nan nan nan nan nan nan nan nan nan nan nan nan nan nan nan nan nan nan nan nan nan nan nan nan nan nan nan nan nan nan nan nan nan nan nan nan nan nan nan nan nan nan nan nan nan nan nan 268 nan nan 271 271 271 271 271 270
nan nan nan nan nan nan nan nan nan nan nan nan nan nan nan nan nan nan nan nan nan nan nan nan nan nan nan nan nan nan nan nan nan nan nan nan nan nan nan nan nan nan nan nan nan nan nan nan nan nan nan nan nan nan nan nan nan nan nan nan nan nan nan nan nan nan nan nan nan nan nan nan nan nan nan nan nan 265 263 262 264 267 267 262 259 259
nan nan nan nan nan nan nan nan nan nan nan nan nan nan nan nan nan nan nan nan nan nan nan nan nan nan nan nan nan nan nan nan nan nan nan nan nan nan nan nan nan nan nan nan nan nan nan nan nan nan nan nan nan nan nan nan nan nan nan nan nan nan nan nan nan nan nan nan nan nan nan nan nan nan nan nan nan 267 266 nan nan nan 257 261 260 260
nan nan nan nan nan nan nan nan nan nan nan nan nan nan nan nan nan nan nan nan nan nan nan nan nan nan nan nan nan nan nan nan nan nan nan nan nan nan nan nan nan nan nan nan nan nan nan nan nan nan nan nan nan nan nan nan nan nan nan nan nan nan nan nan nan nan nan nan nan nan nan nan nan nan nan nan nan nan 266 266 nan nan nan nan nan nan